Terminal Aerodrome Forecast
Issued by NWS

Home | Current Version | Previous Version | Graphics & Text | Print | Product List | Glossary On
Versions: 1 2 3 4 5 6 7 8 9 10 11 12 13 14 15 16 17 18 19 20 21 22 23 24
000
FTUS43 KFGF 280520
TAFBJI
TAF
KBJI 280520Z 2806/2906 VRB04KT 1/2SM FG OVC005
      TEMPO 2806/2808 2SM BR
     FM280900 20005KT 1SM BR BKN005
     FM281300 21007KT P6SM BKN250
     FM282000 20011G28KT P6SM FEW250
     FM290000 20009KT P6SM FEW250=

USA.gov is the U.S. government's official web portal to all federal, state and local government web resources and services.